COSMOS 2251 DEB, 38055

Orbit data source: Space-Track

COSMOS 2251 DEB, 38055 is space debris in LEO originally from a launch on Wed, 16 Jun 1993 UTC launched from the Plesetsk Missile And Space Complex (PKMTR). The debris from Iridium 33, an American commercial communications satellite, has been tracked extensively since its accidental collision with the defunct Russian satellite Cosmos 2251 in 2009. This event, occurring at high speed in low Earth orbit (LEO), generated thousands of pieces of space debris, significantly increasing the risk of further collisions. The Iridium 33 debris cloud has impacted space traffic management and orbital debris mitigation strategies, making it a subject of ongoing study in space situational awareness.

Loading next visibility...
Identifier
38055, 1993-036BRM
Orbit
LEO
Country
Flag of CISCIS
Related business
Manufacturer
Unknown
Mission
Spacecraft
Bus & Motor
Unknown
Mass
Unknown
Launch date (UTC)
1993-06-16 (33 years ago)
Launch vehicle
Unknown
Launch site
Plesetsk Missile And Space Complex (PKMTR)
Object type
Payload
Rocket body
Debris
Shape & HBR
Unknown shape, 0.1 m
Radar Cross Section
Small (<0.1 m²)

Expand to show TLE details & history
Last TLE update: 5 days ago

TLE from 5 days ago
0 COSMOS 2251 DEB
1 38055U 93036BRM 26031.98168724  .00006085  00000-0  82196-3 0  9997
2 38055  74.0101 108.0449 0065578 225.8653 310.5976 14.77781368614244
Epoch: 2026-01-31T23:33Z
TLE epoch observation values (Epoch: 2026-01-31T23:33:37.777Z)
Latitude
3.86277°
Longitude
162.33701°
Altitude
608.814 km
Speed
7.571 km/s
True Right ascension
19h 07m 46s
True Declination
3° 50' 21"
Sunlit
Object was in daylight at epoch
Visualization orbit readout
Latitude
Unknown
Longitude
Unknown
Altitude
Unknown
Speed
Unknown
Apparent Right ascension
Unknown
Apparent Declination
Unknown
Sunlit
N/A
Visualization observer readout
Local Sidereal Time
09:27:53
Azimuth
Unknown
Elevation
Unknown
Doppler factor
Unknown
Orbital elements
Apogee altitude
679.9 km
Perigee altitude
587.932 km
Semi-major axis
7,012.053 km
Eccentricity
0.00656
Inclination
74.0101°
RAAN
108.0449°
Arg. of periapsis
225.8653°
True anomaly
310.02396°
Mean anomaly
310.5976°
Eccentric anomaly
310.31109°
Mean motion
3.69637 °/min
Orbital period
97.39 mins
BSTAR
0.00082196
Loading maneuver chart data...
Computing Atmospheric mass density...

Documentation

Showing up to 5 results
|